• Processing (Info)

  • MPEC 1995-F10 : 1994 PM

    The following Minor Planet Electronic Circular may be linked-to from your own Web pages, but must not otherwise be redistributed electronically.

    A form allowing access to any MPEC is at the bottom of this page.


    Read MPEC 1995-F09 Read MPEC 1995-G01


    M.P.E.C. 1995-F10                                Issued 1995 Mar. 31, 18:53 UT
    
         The Minor Planet Electronic Circulars contain information on unusual
             minor planets and routine data on comets.  They are published
       on behalf of Commission 20 of the International Astronomical Union by the
              Minor Planet Center, Smithsonian Astrophysical Observatory,
                              Cambridge, MA 02138, U.S.A.
    
                 BMARSDEN@CFA.HARVARD.EDU or GWILLIAMS@CFA.HARVARD.EDU
    
                                        1994 PM
    
                               Revision to MPEC 1994-P10
    
    Observations:
         J94P00M  C1995 03 29.79606 18 08 22.06 -02 32 24.1                      413
         J94P00M  C1995 03 30.77150 18 08 29.96 -02 24 09.1                      413
         J94P00M  C1995 03 30.77628 18 08 30.00 -02 24 06.9                      413
    
    Observer details:
    413 Siding Spring Observatory.  Observers S. F. Green, N. McBride, D. I. Steel,
        D. J. Asher, G. J. Garradd, R. H. McNaught.  Measurer R. H. McNaught.
        3.9-m AAT + CCD.
    
    First and last observations above in comparison with prediction:
    Residuals in seconds of arc (or two decimals in degrees)
    950329 413 0.03- 0.02+    950330 413 0.03- 0.02+    MPC 23984
    
    Orbital elements:
    1994 PM
    Id. R. H. McNaught (1995 observations)
    Epoch 1995 Mar. 24.0 TT = JDT 2449800.5                 Williams
    M  92.57626              (2000.0)            P               Q
    n   0.54802564     Peri.  303.28995     +0.08948288     -0.97614389
    a   1.4788886      Node   140.07161     +0.98518331     +0.05757070
    e   0.7526501      Incl.   17.95230     +0.14631012     +0.20935310
    P   1.80           H   17.5           G   0.15           U   4
    Residuals in seconds of arc
    940801 675  0.1-  1.3-    940812 801  0.8-  0.1-    940815 413  0.4+  0.0
    940801 675  0.5+  1.1-    940812 816  0.2+  0.1+    940815 413  0.3+  0.1-
    940802 675  0.9+  1.1-    940812 816  0.4+  0.3+    940815 474  0.4-  1.5-
    940802 675  0.4+  0.7-    940812 816  0.2+  0.2+    940815 474  0.2-  1.5-
    940807 675  1.9-  0.9-    940812 816  0.1+  0.2+    940815 413  0.9+  0.0
    940807 675 (2.1-  1.2-)   940812 474  1.1+  0.9+    940815 413  0.9+  0.4+
    940809 675 (2.9+  3.0+)   940812 474  0.1+  1.0+    940816 474  0.2-  0.3-
    940809 675 (1.3+  2.3+)   940812 398  0.6+  0.5+    940816 474  0.0   0.2-
    940810 657  0.6-  0.1-    940812 398  0.5+  0.5+    940816 474  0.1-  0.3+
    940810 657  0.9-  0.1-    940812 398  0.3+  0.6+    940816 413  0.9+  0.2+
    940810 657  0.8-  0.0     940812 587  1.1+  0.5+    940816 413  0.8+  0.3+
    940810 474  1.5+  1.5+    940812 587  0.8+  0.1+    940816 323  0.3-  0.9-
    940810 474  0.2-  0.5-    940812 587  0.6+  0.1+    940816 413  0.0   0.4+
    940810 104  0.3+  0.1+    940813 323  1.3+  1.0+    940816 413  0.1-  0.3+
    940810 104  0.5-  0.1+    940814 398  0.7-  0.1-    940816 413  0.7-  0.2+
    940810 104  0.4-  0.4-    940814 398  0.6-  0.4+    940816 413  0.5-  0.3+
    940810 104  0.7-  0.0     940815 670  0.6-  0.3+    940816 413  0.3-  0.4+
    940810 104  0.6-  0.4-    940815 670  0.4-  0.2-    940816 413  0.5-  0.4+
    940811 111  0.9-  0.4-    940815 670  0.4-  0.2+    940817 413  0.7-  0.8-
    940811 111  0.6-  0.4-    940815 670  0.8-  0.0     940817 413  0.7-  0.7-
    940811 111  0.2-  0.5-    940815 670  1.0-  0.4+    940817 413  0.2-  0.5-
    940811 111  0.5-  0.4-    940815 413  0.4-  0.1+    940817 413  0.6-  0.6-
    940811 111  0.7-  0.0     940815 413  0.2-  0.7+    940817 413  0.4+  0.7+
    940812 587  0.5-  0.0     940815 474  0.5+  0.0     940817 413  0.1+  0.6+
    940812 587  0.6-  0.1-    940815 474 (2.5+  0.5+)   940826 413  0.1+  1.9-
    940812 816  0.2-  0.1-    940815 474  1.8+  0.4+    940826 413  0.0   1.8-
    940812 816  0.1-  0.0     940815 474 (2.5+  1.5+)   950329 413  0.0   0.7-
    940812 816  0.2-  0.2+    940815 323  0.7+  0.1+    950330 413  0.1-  0.5-
    940812 816  0.3-  0.3+    940815 360  0.5+  0.2+    950330 413  0.1+  0.7-
    940812 816  0.1-  0.3+    940815 360  0.3+  0.2+
    940812 801  1.8+  0.7-    940815 360  0.2+  0.0
    
    Ephemeris:
    1994 PM                  a,e,i = 1.48, 0.75, 18                  q = 0.3658
    Date    TT    R. A. (2000) Decl.     Delta      r     Elong.  Phase     V
    1995 03 24    18 06.97   -03 20.4    1.886    2.149    91.0    27.6    21.8
    1995 04 03    18 08.71   -01 56.6    1.803    2.205    99.8    26.5    21.7
    1995 04 13    18 07.10   -00 29.3    1.721    2.257   109.0    24.8    21.6
    1995 04 23    18 01.88   +00 58.0    1.646    2.305   118.8    22.5    21.5
    1995 05 03    17 52.88   +02 20.2    1.581    2.349   128.9    19.5    21.3
    1995 05 13    17 40.32   +03 30.3    1.535    2.389   138.7    16.2    21.2
    1995 05 23    17 24.90   +04 21.0    1.511    2.425   147.2    13.1    21.1
    1995 06 02    17 07.82   +04 46.1    1.514    2.457   152.2    11.1    21.0
    1995 06 12    16 50.65   +04 42.1    1.547    2.486   151.3    11.3    21.1
    1995 06 22    16 34.94   +04 10.5    1.608    2.511   145.3    13.3    21.3
    1995 07 02    16 21.83   +03 15.7    1.694    2.533   136.8    16.0    21.5
    1995 07 12    16 11.98   +02 04.3    1.802    2.551   127.4    18.4    21.8
    1995 07 22    16 05.50   +00 42.4    1.926    2.566   118.1    20.5    22.0
    
    Gareth V. Williams                                            M.P.E.C. 1995-F10
    

    Read MPEC 1995-F09 Read MPEC 1995-G01


    MPEC number:

    Enter an MPEC number in one of the following forms:

    • 1997-B01 (the full form)
    • J97B01 (the packed version of the full form)
    • B01 (the abbreviated form)